Year,Month,Day,Hour,Minute,Value (Times are PST for temperature in C)
2018,04,10,00,00,6.70
2018,04,10,00,01,6.70
2018,04,10,00,02,6.70
2018,04,10,00,03,6.70
2018,04,10,00,04,6.70
2018,04,10,00,05,6.70
2018,04,10,00,06,6.70
2018,04,10,00,07,6.70
2018,04,10,00,08,6.70
2018,04,10,00,09,6.70
2018,04,10,00,10,6.70
2018,04,10,00,11,6.70
2018,04,10,00,12,6.60
2018,04,10,00,13,6.60
2018,04,10,00,14,6.60
2018,04,10,00,15,6.50
2018,04,10,00,16,6.50
2018,04,10,00,17,6.50
2018,04,10,00,18,6.50
2018,04,10,00,19,6.50
2018,04,10,00,20,6.50
2018,04,10,00,21,6.50
2018,04,10,00,22,6.50
2018,04,10,00,23,6.50
2018,04,10,00,24,6.50
2018,04,10,00,25,6.50
2018,04,10,00,26,6.50
2018,04,10,00,27,6.50
2018,04,10,00,28,6.50
2018,04,10,00,29,6.50
2018,04,10,00,30,6.40
2018,04,10,00,31,6.40
2018,04,10,00,32,6.40
2018,04,10,00,33,6.40
2018,04,10,00,34,6.40
2018,04,10,00,35,6.40
2018,04,10,00,36,6.40
2018,04,10,00,37,6.40
2018,04,10,00,38,6.30
2018,04,10,00,39,6.30
2018,04,10,00,40,6.30
2018,04,10,00,41,6.30
2018,04,10,00,42,6.30
2018,04,10,00,43,6.30
2018,04,10,00,44,6.20
2018,04,10,00,45,6.20
2018,04,10,00,46,6.20
2018,04,10,00,47,6.20
2018,04,10,00,48,6.20
2018,04,10,00,49,6.20
2018,04,10,00,50,6.20
2018,04,10,00,51,6.20
2018,04,10,00,52,6.20
2018,04,10,00,53,6.20
2018,04,10,00,54,6.20
2018,04,10,00,55,6.20
2018,04,10,00,56,6.20
2018,04,10,00,57,6.20
2018,04,10,00,58,6.20
2018,04,10,00,59,6.20
2018,04,10,01,00,6.20
2018,04,10,01,01,6.20
2018,04,10,01,02,6.20
2018,04,10,01,03,6.20
2018,04,10,01,04,6.10
2018,04,10,01,05,6.10
2018,04,10,01,06,6.10
2018,04,10,01,07,6.10
2018,04,10,01,08,6.20
2018,04,10,01,09,6.20
2018,04,10,01,10,6.20
2018,04,10,01,11,6.20
2018,04,10,01,12,6.20
2018,04,10,01,13,6.20
2018,04,10,01,14,6.20
2018,04,10,01,15,6.20
2018,04,10,01,16,6.20
2018,04,10,01,17,6.20
2018,04,10,01,18,6.20
2018,04,10,01,19,6.10
2018,04,10,01,20,6.10
2018,04,10,01,21,6.10
2018,04,10,01,22,6.10
2018,04,10,01,23,6.00
2018,04,10,01,24,6.00
2018,04,10,01,25,6.00
2018,04,10,01,26,6.00
2018,04,10,01,27,5.90
2018,04,10,01,28,5.90
2018,04,10,01,29,5.90
2018,04,10,01,30,5.90
2018,04,10,01,31,5.90
2018,04,10,01,32,5.90
2018,04,10,01,33,5.90
2018,04,10,01,34,5.80
2018,04,10,01,35,5.80
2018,04,10,01,36,5.80
2018,04,10,01,37,5.80
2018,04,10,01,38,5.80
2018,04,10,01,39,5.80
2018,04,10,01,40,5.80
2018,04,10,01,41,5.80
2018,04,10,01,42,5.80
2018,04,10,01,43,5.80
2018,04,10,01,44,5.80
2018,04,10,01,45,5.80
2018,04,10,01,46,5.80
2018,04,10,01,47,5.80
2018,04,10,01,48,5.80
2018,04,10,01,49,5.80
2018,04,10,01,50,5.80
2018,04,10,01,51,5.80
2018,04,10,01,52,5.80
2018,04,10,01,53,5.80
2018,04,10,01,54,5.80
2018,04,10,01,55,5.80
2018,04,10,01,56,5.70
2018,04,10,01,57,5.70
2018,04,10,01,58,5.70
2018,04,10,01,59,5.70
2018,04,10,02,00,5.80
2018,04,10,02,01,5.80
2018,04,10,02,02,5.80
2018,04,10,02,03,5.80
2018,04,10,02,04,5.80
2018,04,10,02,05,5.80
2018,04,10,02,06,5.80
2018,04,10,02,07,5.80
2018,04,10,02,08,5.90
2018,04,10,02,09,5.90
2018,04,10,02,10,5.90
2018,04,10,02,11,5.90
2018,04,10,02,12,5.90
2018,04,10,02,13,5.90
2018,04,10,02,14,5.90
2018,04,10,02,15,6.00
2018,04,10,02,16,6.00
2018,04,10,02,17,6.10
2018,04,10,02,18,6.10
2018,04,10,02,19,6.10
2018,04,10,02,20,6.10
2018,04,10,02,21,6.10
2018,04,10,02,22,6.00
2018,04,10,02,23,5.90
2018,04,10,02,24,5.90
2018,04,10,02,25,5.90
2018,04,10,02,26,5.90
2018,04,10,02,27,5.90
2018,04,10,02,28,5.90
2018,04,10,02,29,5.90
2018,04,10,02,30,5.90
2018,04,10,02,31,5.90
2018,04,10,02,32,5.90
2018,04,10,02,33,5.90
2018,04,10,02,34,5.90
2018,04,10,02,35,5.90
2018,04,10,02,36,6.00
2018,04,10,02,37,6.00
2018,04,10,02,38,5.90
2018,04,10,02,39,5.90
2018,04,10,02,40,5.90
2018,04,10,02,41,5.90
2018,04,10,02,42,5.90
2018,04,10,02,43,5.90
2018,04,10,02,44,5.90
2018,04,10,02,45,5.90
2018,04,10,02,46,5.90
2018,04,10,02,47,5.90
2018,04,10,02,48,5.90
2018,04,10,02,49,5.90
2018,04,10,02,50,5.90
2018,04,10,02,51,5.90
2018,04,10,02,52,5.90
2018,04,10,02,53,5.90
2018,04,10,02,54,5.90
2018,04,10,02,55,5.90
2018,04,10,02,56,5.90
2018,04,10,02,57,5.90
2018,04,10,02,58,6.00
2018,04,10,02,59,6.00
2018,04,10,03,00,5.90
2018,04,10,03,01,6.00
2018,04,10,03,02,6.00
2018,04,10,03,03,6.00
2018,04,10,03,04,6.10
2018,04,10,03,05,6.10
2018,04,10,03,06,6.10
2018,04,10,03,07,6.10
2018,04,10,03,08,6.10
2018,04,10,03,09,6.00
2018,04,10,03,10,6.00
2018,04,10,03,11,6.10
2018,04,10,03,12,6.00
2018,04,10,03,13,6.00
2018,04,10,03,14,6.00
2018,04,10,03,15,6.00
2018,04,10,03,16,6.00
2018,04,10,03,17,6.00
2018,04,10,03,18,6.10
2018,04,10,03,19,6.10
2018,04,10,03,20,6.10
2018,04,10,03,21,6.10
2018,04,10,03,22,6.10
2018,04,10,03,23,6.10
2018,04,10,03,24,6.20
2018,04,10,03,25,6.10
2018,04,10,03,26,6.10
2018,04,10,03,27,6.10
2018,04,10,03,28,6.10
2018,04,10,03,29,6.10
2018,04,10,03,30,6.10
2018,04,10,03,31,6.10
2018,04,10,03,32,6.10
2018,04,10,03,33,6.10
2018,04,10,03,34,6.10
2018,04,10,03,35,6.10
2018,04,10,03,36,6.20
2018,04,10,03,37,6.20
2018,04,10,03,38,6.20
2018,04,10,03,39,6.30
2018,04,10,03,40,6.30
2018,04,10,03,41,6.30
2018,04,10,03,42,6.30
2018,04,10,03,43,6.30
2018,04,10,03,44,6.30
2018,04,10,03,45,6.30
2018,04,10,03,46,6.30
2018,04,10,03,47,6.30
2018,04,10,03,48,6.30
2018,04,10,03,49,6.30
2018,04,10,03,50,6.30
2018,04,10,03,51,6.30
2018,04,10,03,52,6.30
2018,04,10,03,53,6.30
2018,04,10,03,54,6.30
2018,04,10,03,55,6.30
2018,04,10,03,56,6.30
2018,04,10,03,57,6.30
2018,04,10,03,58,6.30
2018,04,10,03,59,6.30
2018,04,10,04,00,6.30
2018,04,10,04,01,6.30
2018,04,10,04,02,6.30
2018,04,10,04,03,6.40
2018,04,10,04,04,6.40
2018,04,10,04,05,6.40
2018,04,10,04,06,6.40
2018,04,10,04,07,6.30
2018,04,10,04,08,6.30
2018,04,10,04,09,6.30
2018,04,10,04,10,6.30
2018,04,10,04,11,6.40
2018,04,10,04,12,6.40
2018,04,10,04,13,6.40
2018,04,10,04,14,6.40
2018,04,10,04,15,6.40
2018,04,10,04,16,6.50
2018,04,10,04,17,6.50
2018,04,10,04,18,6.50
2018,04,10,04,19,6.50
2018,04,10,04,20,6.50
2018,04,10,04,21,6.50
2018,04,10,04,22,6.60
2018,04,10,04,23,6.60
2018,04,10,04,24,6.50
2018,04,10,04,25,6.50
2018,04,10,04,26,6.50
2018,04,10,04,27,6.50
2018,04,10,04,28,6.60
2018,04,10,04,29,6.60
2018,04,10,04,30,6.60
2018,04,10,04,31,6.60
2018,04,10,04,32,6.60
2018,04,10,04,33,6.60
2018,04,10,04,34,6.60
2018,04,10,04,35,6.60
2018,04,10,04,36,6.70
2018,04,10,04,37,6.70
2018,04,10,04,38,6.70
2018,04,10,04,39,6.70
2018,04,10,04,40,6.70
2018,04,10,04,41,6.70
2018,04,10,04,42,6.70
2018,04,10,04,43,6.70
2018,04,10,04,44,6.70
2018,04,10,04,45,6.70
2018,04,10,04,46,6.80
2018,04,10,04,47,6.80
2018,04,10,04,48,6.80
2018,04,10,04,49,6.80
2018,04,10,04,50,6.80
2018,04,10,04,51,6.80
2018,04,10,04,52,6.90
2018,04,10,04,53,7.00
2018,04,10,04,54,7.10
2018,04,10,04,55,7.10
2018,04,10,04,56,7.20
2018,04,10,04,57,7.20
2018,04,10,04,58,7.30
2018,04,10,04,59,7.30
2018,04,10,05,00,7.40
2018,04,10,05,01,7.40
2018,04,10,05,02,7.40
2018,04,10,05,03,7.40
2018,04,10,05,04,7.50
2018,04,10,05,05,7.70
2018,04,10,05,06,7.80
2018,04,10,05,07,7.90
2018,04,10,05,08,8.00
2018,04,10,05,09,8.10
2018,04,10,05,10,8.20
2018,04,10,05,11,8.20
2018,04,10,05,12,8.30
2018,04,10,05,13,8.40
2018,04,10,05,14,8.60
2018,04,10,05,15,8.70
2018,04,10,05,16,8.80
2018,04,10,05,17,9.00
2018,04,10,05,18,9.20
2018,04,10,05,19,9.30
2018,04,10,05,20,9.30
2018,04,10,05,21,9.30
2018,04,10,05,22,9.40
2018,04,10,05,23,9.50
2018,04,10,05,24,9.50
2018,04,10,05,25,9.60
2018,04,10,05,26,9.70
2018,04,10,05,27,9.80
2018,04,10,05,28,9.90
2018,04,10,05,29,10.00
2018,04,10,05,30,10.10
2018,04,10,05,31,10.10
2018,04,10,05,32,10.10
2018,04,10,05,33,10.10
2018,04,10,05,34,10.10
2018,04,10,05,35,10.10
2018,04,10,05,36,10.10
2018,04,10,05,37,10.00
2018,04,10,05,38,10.00
2018,04,10,05,39,9.90
2018,04,10,05,40,9.90
2018,04,10,05,41,9.90
2018,04,10,05,42,9.90
2018,04,10,05,43,9.90
2018,04,10,05,44,9.90
2018,04,10,05,45,9.90
2018,04,10,05,46,9.90
2018,04,10,05,47,9.90
2018,04,10,05,48,9.80
2018,04,10,05,49,9.80
2018,04,10,05,50,9.80
2018,04,10,05,51,9.80
2018,04,10,05,52,9.80
2018,04,10,05,53,9.80
2018,04,10,05,54,9.70
2018,04,10,05,55,9.70
2018,04,10,05,56,9.60
2018,04,10,05,57,9.60
2018,04,10,05,58,9.60
2018,04,10,05,59,9.60
2018,04,10,06,00,9.50
2018,04,10,06,01,9.50
2018,04,10,06,02,9.40
2018,04,10,06,03,9.40
2018,04,10,06,04,9.40
2018,04,10,06,05,9.40
2018,04,10,06,06,9.40
2018,04,10,06,07,9.40
2018,04,10,06,08,9.40
2018,04,10,06,09,9.40
2018,04,10,06,10,9.30
2018,04,10,06,11,9.30
2018,04,10,06,12,9.30
2018,04,10,06,13,9.30
2018,04,10,06,14,9.30
2018,04,10,06,15,9.20
2018,04,10,06,16,9.20
2018,04,10,06,17,9.10
2018,04,10,06,18,9.00
2018,04,10,06,19,9.00
2018,04,10,06,20,8.90
2018,04,10,06,21,8.80
2018,04,10,06,22,8.80
2018,04,10,06,23,8.70
2018,04,10,06,24,8.70
2018,04,10,06,25,8.70
2018,04,10,06,26,8.60
2018,04,10,06,27,8.60
2018,04,10,06,28,8.60
2018,04,10,06,29,8.60
2018,04,10,06,30,8.60
2018,04,10,06,31,8.50
2018,04,10,06,32,8.50
2018,04,10,06,33,8.50
2018,04,10,06,34,8.40
2018,04,10,06,35,8.40
2018,04,10,06,36,8.40
2018,04,10,06,37,8.40
2018,04,10,06,38,8.40
2018,04,10,06,39,8.40
2018,04,10,06,40,8.40
2018,04,10,06,41,8.40
2018,04,10,06,42,8.40
2018,04,10,06,43,8.40
2018,04,10,06,44,8.40
2018,04,10,06,45,8.40
2018,04,10,06,46,8.50
2018,04,10,06,47,8.50
2018,04,10,06,48,8.50
2018,04,10,06,49,8.50
2018,04,10,06,50,8.50
2018,04,10,06,51,8.40
2018,04,10,06,52,8.40
2018,04,10,06,53,8.40
2018,04,10,06,54,8.40
2018,04,10,06,55,8.40
2018,04,10,06,56,8.40
2018,04,10,06,57,8.40
2018,04,10,06,58,8.40
2018,04,10,06,59,8.40
2018,04,10,07,00,8.40
2018,04,10,07,01,8.40
2018,04,10,07,02,8.40
2018,04,10,07,03,8.40
2018,04,10,07,04,8.40
2018,04,10,07,05,8.40
2018,04,10,07,06,8.40
2018,04,10,07,07,8.40
2018,04,10,07,08,8.40
2018,04,10,07,09,8.40
2018,04,10,07,10,8.40
2018,04,10,07,11,8.40
2018,04,10,07,12,8.40
2018,04,10,07,13,8.40
2018,04,10,07,14,8.40
2018,04,10,07,15,8.40
2018,04,10,07,16,8.40
2018,04,10,07,17,8.40
2018,04,10,07,18,8.40
2018,04,10,07,19,8.40
2018,04,10,07,20,8.40
2018,04,10,07,21,8.40
2018,04,10,07,22,8.40
2018,04,10,07,23,8.40
2018,04,10,07,24,8.40
2018,04,10,07,25,8.40
2018,04,10,07,26,8.40
2018,04,10,07,27,8.40
2018,04,10,07,28,8.50
2018,04,10,07,29,8.50
2018,04,10,07,30,8.50
2018,04,10,07,31,8.50
2018,04,10,07,32,8.60
2018,04,10,07,33,8.60
2018,04,10,07,34,8.60
2018,04,10,07,35,8.60
2018,04,10,07,36,8.60
2018,04,10,07,37,8.60
2018,04,10,07,38,8.60
2018,04,10,07,39,8.60
2018,04,10,07,40,8.60
2018,04,10,07,41,8.60
2018,04,10,07,42,8.60
2018,04,10,07,43,8.60
2018,04,10,07,44,8.60
2018,04,10,07,45,8.60
2018,04,10,07,46,8.60
2018,04,10,07,47,8.50
2018,04,10,07,48,8.50
2018,04,10,07,49,8.50
2018,04,10,07,50,8.50
2018,04,10,07,51,8.50
2018,04,10,07,52,8.50
2018,04,10,07,53,8.50
2018,04,10,07,54,8.50
2018,04,10,07,55,8.50
2018,04,10,07,56,8.50
2018,04,10,07,57,8.50
2018,04,10,07,58,8.50
2018,04,10,07,59,8.60
2018,04,10,08,00,8.60
2018,04,10,08,01,8.60
2018,04,10,08,02,8.60
2018,04,10,08,03,8.70
2018,04,10,08,04,8.70
2018,04,10,08,05,8.70
2018,04,10,08,06,8.70
2018,04,10,08,07,8.70
2018,04,10,08,08,8.80
2018,04,10,08,09,8.80
2018,04,10,08,10,8.80
2018,04,10,08,11,8.90
2018,04,10,08,12,9.00
2018,04,10,08,13,9.00
2018,04,10,08,14,9.10
2018,04,10,08,15,9.20
2018,04,10,08,16,9.20
2018,04,10,08,17,9.30
2018,04,10,08,18,9.30
2018,04,10,08,19,9.30
2018,04,10,08,20,9.30
2018,04,10,08,21,9.40
2018,04,10,08,22,9.50
2018,04,10,08,23,9.60
2018,04,10,08,24,9.70
2018,04,10,08,25,9.70
2018,04,10,08,26,9.80
2018,04,10,08,27,9.80
2018,04,10,08,28,9.80
2018,04,10,08,29,9.90
2018,04,10,08,30,9.90
2018,04,10,08,31,9.90
2018,04,10,08,32,10.00
2018,04,10,08,33,10.00
2018,04,10,08,34,10.00
2018,04,10,08,35,10.10
2018,04,10,08,36,10.20
2018,04,10,08,37,10.20
2018,04,10,08,38,10.20
2018,04,10,08,39,10.30
2018,04,10,08,40,10.30
2018,04,10,08,41,10.30
2018,04,10,08,42,10.40
2018,04,10,08,43,10.40
2018,04,10,08,44,10.40
2018,04,10,08,45,10.40
2018,04,10,08,46,10.50
2018,04,10,08,47,10.50
2018,04,10,08,48,10.50
2018,04,10,08,49,10.50
2018,04,10,08,50,10.50
2018,04,10,08,51,10.60
2018,04,10,08,52,10.60
2018,04,10,08,53,10.70
2018,04,10,08,54,10.70
2018,04,10,08,55,10.70
2018,04,10,08,56,10.70
2018,04,10,08,57,10.70
2018,04,10,08,58,10.70
2018,04,10,08,59,10.80
2018,04,10,09,00,10.80
2018,04,10,09,01,10.80
2018,04,10,09,02,10.90
2018,04,10,09,03,10.90
2018,04,10,09,04,11.00
2018,04,10,09,05,11.00
2018,04,10,09,06,11.10
2018,04,10,09,07,11.40
2018,04,10,09,08,11.50
2018,04,10,09,09,11.60
2018,04,10,09,10,11.60
2018,04,10,09,11,11.70
2018,04,10,09,12,11.80
2018,04,10,09,13,11.90
2018,04,10,09,14,12.00
2018,04,10,09,15,12.10
2018,04,10,09,16,12.30
2018,04,10,09,17,12.40
2018,04,10,09,18,12.50
2018,04,10,09,19,12.60
2018,04,10,09,20,12.70
2018,04,10,09,21,12.70
2018,04,10,09,22,12.80
2018,04,10,09,23,12.80
2018,04,10,09,24,12.80
2018,04,10,09,25,12.90
2018,04,10,09,26,12.90
2018,04,10,09,27,12.90
2018,04,10,09,28,12.90
2018,04,10,09,29,12.90
2018,04,10,09,30,12.90
2018,04,10,09,31,12.90
2018,04,10,09,32,12.90
2018,04,10,09,33,12.90
2018,04,10,09,34,13.00
2018,04,10,09,35,13.00
2018,04,10,09,36,13.10
2018,04,10,09,37,13.10
2018,04,10,09,38,13.20
2018,04,10,09,39,13.20
2018,04,10,09,40,13.20
2018,04,10,09,41,13.20
2018,04,10,09,42,13.20
2018,04,10,09,43,13.20
2018,04,10,09,44,13.20
2018,04,10,09,45,13.20
2018,04,10,09,46,13.20
2018,04,10,09,47,13.20
2018,04,10,09,48,13.10
2018,04,10,09,49,13.10
2018,04,10,09,50,13.10
2018,04,10,09,51,13.10
2018,04,10,09,52,13.10
2018,04,10,09,53,13.10
2018,04,10,09,54,13.10
2018,04,10,09,55,13.10
2018,04,10,09,56,13.00
2018,04,10,09,57,13.10
2018,04,10,09,58,13.10
2018,04,10,09,59,13.10
2018,04,10,10,00,13.10
2018,04,10,10,01,13.20
2018,04,10,10,02,13.20
2018,04,10,10,03,13.20
2018,04,10,10,04,13.20
2018,04,10,10,05,13.20
2018,04,10,10,06,13.20
2018,04,10,10,07,13.20
2018,04,10,10,08,13.20
2018,04,10,10,09,13.20
2018,04,10,10,10,13.20
2018,04,10,10,11,13.10
2018,04,10,10,12,13.10
2018,04,10,10,13,13.10
2018,04,10,10,14,13.10
2018,04,10,10,15,13.10
2018,04,10,10,16,13.10
2018,04,10,10,17,13.10
2018,04,10,10,18,13.10
2018,04,10,10,19,13.00
2018,04,10,10,20,13.00
2018,04,10,10,21,12.90
2018,04,10,10,22,12.90
2018,04,10,10,23,12.80
2018,04,10,10,24,12.80
2018,04,10,10,25,12.80
2018,04,10,10,26,12.80
2018,04,10,10,27,12.70
2018,04,10,10,28,12.60
2018,04,10,10,29,12.60
2018,04,10,10,30,12.50
2018,04,10,10,31,12.40
2018,04,10,10,32,12.30
2018,04,10,10,33,12.30
2018,04,10,10,34,12.20
2018,04,10,10,35,12.10
2018,04,10,10,36,12.10
2018,04,10,10,37,12.00
2018,04,10,10,38,11.90
2018,04,10,10,39,11.80
2018,04,10,10,40,11.70
2018,04,10,10,41,11.60
2018,04,10,10,42,11.50
2018,04,10,10,43,11.40
2018,04,10,10,44,11.40
2018,04,10,10,45,11.30
2018,04,10,10,46,11.30
2018,04,10,10,47,11.30
2018,04,10,10,48,11.30
2018,04,10,10,49,11.30
2018,04,10,10,50,11.30
2018,04,10,10,51,11.20
2018,04,10,10,52,11.10
2018,04,10,10,53,11.10
2018,04,10,10,54,11.10
2018,04,10,10,55,11.10
2018,04,10,10,56,11.10
2018,04,10,10,57,11.00
2018,04,10,10,58,10.90
2018,04,10,10,59,10.90
2018,04,10,11,00,10.80
2018,04,10,11,01,10.80
2018,04,10,11,02,10.70
2018,04,10,11,03,10.70
2018,04,10,11,04,10.70
2018,04,10,11,05,10.70
2018,04,10,11,06,10.70
2018,04,10,11,07,10.70
2018,04,10,11,08,10.70
2018,04,10,11,09,10.70
2018,04,10,11,10,10.80
2018,04,10,11,11,10.80
2018,04,10,11,12,10.90
2018,04,10,11,13,10.80
2018,04,10,11,14,10.80
2018,04,10,11,15,10.90
2018,04,10,11,16,11.00
2018,04,10,11,17,11.10
2018,04,10,11,18,11.20
2018,04,10,11,19,11.20
2018,04,10,11,20,11.30
2018,04,10,11,21,11.40
2018,04,10,11,22,11.50
2018,04,10,11,23,11.60
2018,04,10,11,24,11.70
2018,04,10,11,25,11.80
2018,04,10,11,26,11.90
2018,04,10,11,27,12.00
2018,04,10,11,28,12.00
2018,04,10,11,29,12.10
2018,04,10,11,30,12.20
2018,04,10,11,31,12.30
2018,04,10,11,32,12.30
2018,04,10,11,33,12.30
2018,04,10,11,34,12.30
2018,04,10,11,35,12.20
2018,04,10,11,36,12.20
2018,04,10,11,37,12.20
2018,04,10,11,38,12.20
2018,04,10,11,39,12.30
2018,04,10,11,40,12.20
2018,04,10,11,41,12.20
2018,04,10,11,42,12.20
2018,04,10,11,43,12.20
2018,04,10,11,44,12.20
2018,04,10,11,45,12.20
2018,04,10,11,46,12.20
2018,04,10,11,47,12.20
2018,04,10,11,48,12.20
2018,04,10,11,49,12.20
2018,04,10,11,50,12.20
2018,04,10,11,51,12.30
2018,04,10,11,52,12.40
2018,04,10,11,53,12.50
2018,04,10,11,54,12.50
2018,04,10,11,55,12.60
2018,04,10,11,56,12.70
2018,04,10,11,57,12.80
2018,04,10,11,58,12.90
2018,04,10,11,59,13.00
2018,04,10,12,00,13.00
2018,04,10,12,01,13.10
2018,04,10,12,02,13.10
2018,04,10,12,03,13.10
2018,04,10,12,04,13.10
2018,04,10,12,05,13.10
2018,04,10,12,06,13.10
2018,04,10,12,07,13.10
2018,04,10,12,08,13.10
2018,04,10,12,09,13.10
2018,04,10,12,10,13.20
2018,04,10,12,11,13.20
2018,04,10,12,12,13.10
2018,04,10,12,13,13.20
2018,04,10,12,14,13.20
2018,04,10,12,15,13.20
2018,04,10,12,16,13.10
2018,04,10,12,17,13.10
2018,04,10,12,18,13.10
2018,04,10,12,19,13.00
2018,04,10,12,20,12.90
2018,04,10,12,21,12.80
2018,04,10,12,22,12.80
2018,04,10,12,23,12.80
2018,04,10,12,24,12.70
2018,04,10,12,25,12.80
2018,04,10,12,26,12.80
2018,04,10,12,27,12.80
2018,04,10,12,28,12.90
2018,04,10,12,29,12.90
2018,04,10,12,30,12.90
2018,04,10,12,31,12.90
2018,04,10,12,32,12.90
2018,04,10,12,33,12.90
2018,04,10,12,34,12.90
2018,04,10,12,35,12.90
2018,04,10,12,36,12.80
2018,04,10,12,37,12.80
2018,04,10,12,38,12.80
2018,04,10,12,39,12.90
2018,04,10,12,40,12.90
2018,04,10,12,41,13.00
2018,04,10,12,42,13.10
2018,04,10,12,43,13.10
2018,04,10,12,44,13.10
2018,04,10,12,45,13.10
2018,04,10,12,46,13.10
2018,04,10,12,47,13.20
2018,04,10,12,48,13.20
2018,04,10,12,49,13.20
2018,04,10,12,50,13.20
2018,04,10,12,51,13.20
2018,04,10,12,52,13.30
2018,04,10,12,53,13.30
2018,04,10,12,54,13.40
2018,04,10,12,55,13.50
2018,04,10,12,56,13.50
2018,04,10,12,57,13.50
2018,04,10,12,58,13.50
2018,04,10,12,59,13.40
2018,04,10,13,00,13.40
2018,04,10,13,01,13.40
2018,04,10,13,02,13.40
2018,04,10,13,03,13.50
2018,04,10,13,04,13.60
2018,04,10,13,05,13.60
2018,04,10,13,06,13.50
2018,04,10,13,07,13.50
2018,04,10,13,08,13.50
2018,04,10,13,09,13.50
2018,04,10,13,10,13.40
2018,04,10,13,11,13.40
2018,04,10,13,12,13.40
2018,04,10,13,13,13.50
2018,04,10,13,14,13.50
2018,04,10,13,15,13.60
2018,04,10,13,16,13.50
2018,04,10,13,17,13.60
2018,04,10,13,18,13.60
2018,04,10,13,19,13.70
2018,04,10,13,20,13.80
2018,04,10,13,21,13.80
2018,04,10,13,22,13.80
2018,04,10,13,23,13.90
2018,04,10,13,24,13.90
2018,04,10,13,25,13.80
2018,04,10,13,26,13.80
2018,04,10,13,27,13.70
2018,04,10,13,28,13.70
2018,04,10,13,29,13.80
2018,04,10,13,30,13.90
2018,04,10,13,31,13.90
2018,04,10,13,32,14.00
2018,04,10,13,33,14.00
2018,04,10,13,34,14.10
2018,04,10,13,35,14.10
2018,04,10,13,36,14.10
2018,04,10,13,37,14.00
2018,04,10,13,38,13.90
2018,04,10,13,39,13.80
2018,04,10,13,40,13.80
2018,04,10,13,41,13.70
2018,04,10,13,42,13.70
2018,04,10,13,43,13.70
2018,04,10,13,44,13.70
2018,04,10,13,45,13.70
2018,04,10,13,46,13.80
2018,04,10,13,47,13.80
2018,04,10,13,48,13.90
2018,04,10,13,49,14.00
2018,04,10,13,50,14.10
2018,04,10,13,51,14.10
2018,04,10,13,52,14.10
2018,04,10,13,53,14.10
2018,04,10,13,54,14.10
2018,04,10,13,55,14.10
2018,04,10,13,56,14.10
2018,04,10,13,57,14.10
2018,04,10,13,58,14.20
2018,04,10,13,59,14.30
2018,04,10,14,00,14.40
2018,04,10,14,01,14.40
2018,04,10,14,02,14.50
2018,04,10,14,03,14.50
2018,04,10,14,04,14.60
2018,04,10,14,05,14.70
2018,04,10,14,06,14.70
2018,04,10,14,07,14.70
2018,04,10,14,08,14.60
2018,04,10,14,09,14.60
2018,04,10,14,10,14.60
2018,04,10,14,11,14.50
2018,04,10,14,12,14.50
2018,04,10,14,13,14.50
2018,04,10,14,14,14.60
2018,04,10,14,15,14.60
2018,04,10,14,16,14.50
2018,04,10,14,17,14.50
2018,04,10,14,18,14.50
2018,04,10,14,19,14.50
2018,04,10,14,20,14.60
2018,04,10,14,21,14.60
2018,04,10,14,22,14.70
2018,04,10,14,23,14.70
2018,04,10,14,24,14.70
2018,04,10,14,25,14.70
2018,04,10,14,26,14.70
2018,04,10,14,27,14.70
2018,04,10,14,28,14.60
2018,04,10,14,29,14.60
2018,04,10,14,30,14.60
2018,04,10,14,31,14.60
2018,04,10,14,32,14.60
2018,04,10,14,33,14.60
2018,04,10,14,34,14.60
2018,04,10,14,35,14.70
2018,04,10,14,36,14.70
2018,04,10,14,37,14.70
2018,04,10,14,38,14.70
2018,04,10,14,39,14.70
2018,04,10,14,40,14.70
2018,04,10,14,41,14.70
2018,04,10,14,42,14.80
2018,04,10,14,43,14.90
2018,04,10,14,44,14.90
2018,04,10,14,45,15.00
2018,04,10,14,46,15.00
2018,04,10,14,47,15.10
2018,04,10,14,48,15.10
2018,04,10,14,49,15.10
2018,04,10,14,50,15.10
2018,04,10,14,51,15.10
2018,04,10,14,52,15.00
2018,04,10,14,53,14.90
2018,04,10,14,54,14.90
2018,04,10,14,55,14.80
2018,04,10,14,56,14.80
2018,04,10,15,00,14.90
2018,04,10,15,01,14.90
2018,04,10,15,02,14.80
2018,04,10,15,03,14.80
2018,04,10,15,04,14.90
2018,04,10,15,05,15.00
2018,04,10,15,06,15.10
2018,04,10,15,07,15.20
2018,04,10,15,08,15.20
2018,04,10,15,09,15.10
2018,04,10,15,10,15.10
2018,04,10,15,11,15.10
2018,04,10,15,12,15.10
2018,04,10,15,13,15.00
2018,04,10,15,14,15.10
2018,04,10,15,15,15.10
2018,04,10,15,16,15.10
2018,04,10,15,17,15.00
2018,04,10,15,18,15.00
2018,04,10,15,19,15.00
2018,04,10,15,20,15.00
2018,04,10,15,21,15.10
2018,04,10,15,22,15.10
2018,04,10,15,23,15.10
2018,04,10,15,24,15.10
2018,04,10,15,25,15.10
2018,04,10,15,26,15.20
2018,04,10,15,27,15.30
2018,04,10,15,28,15.30
2018,04,10,15,29,15.30
2018,04,10,15,30,15.30
2018,04,10,15,31,15.30
2018,04,10,15,32,15.30
2018,04,10,15,33,15.20
2018,04,10,15,34,15.20
2018,04,10,15,35,15.20
2018,04,10,15,36,15.20
2018,04,10,15,37,15.20
2018,04,10,15,38,15.20
2018,04,10,15,39,15.30
2018,04,10,15,40,15.30
2018,04,10,15,41,15.30
2018,04,10,15,42,15.30
2018,04,10,15,43,15.30
2018,04,10,15,44,15.30
2018,04,10,15,45,15.40
2018,04,10,15,46,15.40
2018,04,10,15,47,15.40
2018,04,10,15,48,15.40
2018,04,10,15,49,15.50
2018,04,10,15,50,15.60
2018,04,10,15,51,15.60
2018,04,10,15,52,15.60
2018,04,10,15,53,15.60
2018,04,10,15,54,15.50
2018,04,10,15,55,15.50
2018,04,10,15,56,15.50
2018,04,10,15,57,15.60
2018,04,10,15,58,15.60
2018,04,10,15,59,15.60
2018,04,10,16,00,15.50
2018,04,10,16,01,15.50
2018,04,10,16,02,15.40
2018,04,10,16,03,15.40
2018,04,10,16,04,15.30
2018,04,10,16,05,15.20
2018,04,10,16,06,15.30
2018,04,10,16,07,15.30
2018,04,10,16,08,15.30
2018,04,10,16,09,15.40
2018,04,10,16,10,15.40
2018,04,10,16,11,15.40
2018,04,10,16,12,15.40
2018,04,10,16,13,15.40
2018,04,10,16,14,15.40
2018,04,10,16,15,15.50
2018,04,10,16,16,15.50
2018,04,10,16,17,15.60
2018,04,10,16,18,15.60
2018,04,10,16,19,15.60
2018,04,10,16,20,15.50
2018,04,10,16,21,15.50
2018,04,10,16,22,15.40
2018,04,10,16,23,15.40
2018,04,10,16,24,15.40
2018,04,10,16,25,15.40
2018,04,10,16,26,15.30
2018,04,10,16,27,15.20
2018,04,10,16,28,15.20
2018,04,10,16,29,15.10
2018,04,10,16,30,15.10
2018,04,10,16,31,15.10
2018,04,10,16,32,15.20
2018,04,10,16,33,15.20
2018,04,10,16,34,15.20
2018,04,10,16,35,15.10
2018,04,10,16,36,15.10
2018,04,10,16,37,15.20
2018,04,10,16,38,15.20
2018,04,10,16,39,15.20
2018,04,10,16,40,15.20
2018,04,10,16,41,15.20
2018,04,10,16,42,15.20
2018,04,10,16,43,15.20
2018,04,10,16,44,15.20
2018,04,10,16,45,15.20
2018,04,10,16,46,15.30
2018,04,10,16,47,15.30
2018,04,10,16,48,15.30
2018,04,10,16,49,15.20
2018,04,10,16,50,15.10
2018,04,10,16,51,15.10
2018,04,10,16,52,15.10
2018,04,10,16,53,15.10
2018,04,10,16,54,15.10
2018,04,10,16,55,15.10
2018,04,10,16,56,15.10
2018,04,10,16,57,15.10
2018,04,10,16,58,15.10
2018,04,10,16,59,15.00
2018,04,10,17,00,15.00
2018,04,10,17,01,15.00
2018,04,10,17,02,15.10
2018,04,10,17,03,15.10
2018,04,10,17,04,15.10
2018,04,10,17,05,15.00
2018,04,10,17,06,15.10
2018,04,10,17,07,15.10
2018,04,10,17,08,15.20
2018,04,10,17,09,15.20
2018,04,10,17,10,15.20
2018,04,10,17,11,15.20
2018,04,10,17,12,15.30
2018,04,10,17,13,15.30
2018,04,10,17,14,15.30
2018,04,10,17,15,15.40
2018,04,10,17,16,15.40
2018,04,10,17,17,15.40
2018,04,10,17,18,15.30
2018,04,10,17,19,15.30
2018,04,10,17,20,15.30
2018,04,10,17,21,15.30
2018,04,10,17,22,15.30
2018,04,10,17,23,15.30
2018,04,10,17,24,15.20
2018,04,10,17,25,15.10
2018,04,10,17,26,14.90
2018,04,10,17,27,14.70
2018,04,10,17,28,14.60
2018,04,10,17,29,14.50
2018,04,10,17,30,14.40
2018,04,10,17,31,14.30
2018,04,10,17,32,14.20
2018,04,10,17,33,14.20
2018,04,10,17,34,14.10
2018,04,10,17,35,14.00
2018,04,10,17,36,14.00
2018,04,10,17,37,14.00
2018,04,10,17,38,14.10
2018,04,10,17,39,14.20
2018,04,10,17,40,14.20
2018,04,10,17,41,14.20
2018,04,10,17,42,14.20
2018,04,10,17,43,14.10
2018,04,10,17,44,14.10